sat.trackr.live / text

‹ back to catalog

SCS-01 H

NORAD 63989 · 2025-100H

PAYLOAD ACTIVE UNKNOWN

§ Identity

Operator
Country
PRC
Launch date
2025-05-14
Launch site
JSC
Launch vehicle
Mass (kg)
RCS (m²)

External: N2YO · Heavens-Above · Gunter

§ Orbital elements

Epoch: 2026-09-21T22:04:06.108096Z

Period
93.45 min
Inclination
97.3609°
Eccentricity
0.0005383
Mean motion
15.40955316 rev/d
Perigee alt
439.6 km
Apogee alt
447.0 km
Semi-major
6,821.4 km
B*
6.4750e-4
RAAN
341.7937°
Arg perigee
290.4815°
Mean anomaly
69.5853°
Rev number
7,573

§ Raw data

SCS-01 H1 63989U 25100H   26264.91951514  .00026645  00000+0  64750-3 0  99952 63989  97.3609 341.7937 0005383 290.4815  69.5853 15.40955316 75730

JSON: /api/v1/satellites/63989 · /tle

For live sub-satellite position, see the globe view (requires WebGL).

§ Visibility from observer

Set your observer location to see the next 7 days of passes ≥ 10°. The values pass through the URL so the page stays shareable.

No JS? Fill the form by hand. The geolocation button needs JavaScript.